Location: Lhota
(50.0887°N, 14.0116°E)
Time: 16:13:03
(UTC+00:00)

Cosmos 2056 Rocket - Pass Details

Date: 19 May 2025
Orbit: 739 x 796 km, 74.0° (Epoch: 16 June)

Event Time Altitude Azimuth Distance (km) Brightness Sun altitude
Rises 22:40:27 0° 338° (NNW) 3,289 8.1 -19.8°
Reaches altitude 10° 22:42:55 10° 342° (NNW) 2,349 7.2 -19.8°
Maximum altitude 22:48:10 56° 61° (ENE) 923 4.0 -19.9°
Enters shadow 22:50:55 27° 129° (SE) 1,459 4.6 -19.9°
